Time,TemperatureF,DewpointF,PressureIn,WindDirection,WindDirectionDegrees,WindSpeedMPH,WindSpeedGustMPH,Humidity,HourlyPrecipIn,Conditions,Clouds,dailyrainin,SolarRadiationWatts/m^2,SoftwareType,DateUTC
2013-01-16 00:04:00,40.3,38.7,30.07,ENE,64,0.0,-999.0,94,0.00,,,0.00,0,Wunderground v.1.15,2013-01-16 05:04:00,
2013-01-16 00:05:00,40.3,38.7,30.07,ENE,64,0.0,-999.0,94,0.00,,,0.00,0,Wunderground v.1.15,2013-01-16 05:05:00,
2013-01-16 00:06:00,40.3,38.7,30.07,ENE,64,0.0,-999.0,94,0.00,,,0.00,0,Wunderground v.1.15,2013-01-16 05:06:00,
2013-01-16 00:08:00,40.3,38.7,30.08,NW,323,0.0,-999.0,94,0.00,,,0.00,0,Wunderground v.1.15,2013-01-16 05:08:00,
2013-01-16 00:13:00,40.3,38.7,30.08,NNE,18,0.0,-999.0,94,0.00,,,0.00,0,Wunderground v.1.15,2013-01-16 05:13:00,
2013-01-16 00:19:00,40.3,38.7,30.08,NNW,338,0.0,-999.0,94,0.00,,,0.00,0,Wunderground v.1.15,2013-01-16 05:19:00,
2013-01-16 00:24:00,40.3,38.7,30.07,ESE,119,0.0,-999.0,94,0.00,,,0.00,0,Wunderground v.1.15,2013-01-16 05:24:00,
2013-01-16 00:29:00,40.3,38.7,30.07,North,350,0.0,-999.0,94,0.00,,,0.00,0,Wunderground v.1.15,2013-01-16 05:29:00,
2013-01-16 00:34:00,40.3,38.7,30.07,NE,44,0.0,-999.0,94,0.00,,,0.00,0,Wunderground v.1.15,2013-01-16 05:34:00,
2013-01-16 00:40:00,40.2,38.6,30.07,North,360,0.0,-999.0,94,0.00,,,0.00,0,Wunderground v.1.15,2013-01-16 05:40:00,
2013-01-16 00:45:00,40.2,38.6,30.07,NNE,33,0.0,-999.0,94,0.00,,,0.00,0,Wunderground v.1.15,2013-01-16 05:45:00,
2013-01-16 00:51:00,40.2,38.6,30.07,NNE,33,0.0,-999.0,94,0.00,,,0.00,0,Wunderground v.1.15,2013-01-16 05:51:00,
2013-01-16 00:56:00,40.2,38.6,30.07,NW,316,0.0,-999.0,94,0.00,,,0.00,0,Wunderground v.1.15,2013-01-16 05:56:00,
2013-01-16 01:01:00,40.1,38.5,30.07,NNE,16,0.0,-999.0,94,0.00,,,0.00,0,Wunderground v.1.15,2013-01-16 06:01:00,
2013-01-16 01:07:00,40.1,38.5,30.07,NNE,17,0.0,-999.0,94,0.00,,,0.00,0,Wunderground v.1.15,2013-01-16 06:07:00,
2013-01-16 01:12:00,40.1,38.5,30.07,NNE,17,0.0,-999.0,94,0.00,,,0.00,0,Wunderground v.1.15,2013-01-16 06:12:00,
2013-01-16 01:18:00,40.0,38.4,30.06,NNW,332,0.0,-999.0,94,0.00,,,0.01,0,Wunderground v.1.15,2013-01-16 06:18:00,
2013-01-16 01:23:00,40.0,38.4,30.06,NE,36,0.0,-999.0,94,0.00,,,0.01,0,Wunderground v.1.15,2013-01-16 06:23:00,
2013-01-16 01:28:00,39.9,38.3,30.06,North,360,0.0,-999.0,94,0.00,,,0.01,0,Wunderground v.1.15,2013-01-16 06:28:00,
2013-01-16 01:34:00,39.8,38.2,30.07,North,360,0.0,-999.0,94,0.00,,,0.01,0,Wunderground v.1.15,2013-01-16 06:34:00,
2013-01-16 01:39:00,39.8,38.2,30.07,North,360,0.0,-999.0,94,0.00,,,0.01,0,Wunderground v.1.15,2013-01-16 06:39:00,
2013-01-16 01:44:00,39.8,38.2,30.08,NNW,344,0.0,-999.0,94,0.00,,,0.01,0,Wunderground v.1.15,2013-01-16 06:44:00,
2013-01-16 01:49:00,39.8,38.2,30.08,North,355,1.0,-999.0,94,0.00,,,0.01,0,Wunderground v.1.15,2013-01-16 06:49:00,
2013-01-16 01:55:00,39.7,38.1,30.07,North,355,0.0,-999.0,94,0.00,,,0.01,0,Wunderground v.1.15,2013-01-16 06:55:00,
2013-01-16 02:00:00,39.7,38.1,30.07,North,355,0.0,-999.0,94,0.00,,,0.01,0,Wunderground v.1.15,2013-01-16 07:00:00,
2013-01-16 02:05:00,39.6,38.0,30.07,ENE,63,0.0,-999.0,94,0.00,,,0.01,0,Wunderground v.1.15,2013-01-16 07:05:00,
2013-01-16 02:11:00,39.6,38.0,30.07,North,355,0.0,-999.0,94,0.00,,,0.01,0,Wunderground v.1.15,2013-01-16 07:11:00,
2013-01-16 02:16:00,39.6,38.0,30.07,North,355,0.0,-999.0,94,0.00,,,0.01,0,Wunderground v.1.15,2013-01-16 07:16:00,
2013-01-16 02:21:00,39.5,37.9,30.07,North,355,0.0,-999.0,94,0.00,,,0.01,0,Wunderground v.1.15,2013-01-16 07:21:00,
2013-01-16 02:27:00,39.4,37.8,30.07,NNE,25,0.0,-999.0,94,0.00,,,0.01,0,Wunderground v.1.15,2013-01-16 07:27:00,
2013-01-16 02:32:00,39.3,37.7,30.07,NNE,24,0.0,-999.0,94,0.00,,,0.01,0,Wunderground v.1.15,2013-01-16 07:32:00,
2013-01-16 02:38:00,39.3,37.7,30.08,NW,309,0.0,-999.0,94,0.00,,,0.01,0,Wunderground v.1.15,2013-01-16 07:38:00,
2013-01-16 02:43:00,39.2,37.6,30.08,North,350,1.0,-999.0,94,0.00,,,0.01,0,Wunderground v.1.15,2013-01-16 07:43:00,
2013-01-16 02:48:00,39.1,37.5,30.07,NNW,331,1.0,-999.0,94,0.00,,,0.01,0,Wunderground v.1.15,2013-01-16 07:48:00,
2013-01-16 02:54:00,39.2,37.6,30.07,NNW,331,0.0,-999.0,94,0.00,,,0.01,0,Wunderground v.1.15,2013-01-16 07:54:00,
2013-01-16 02:59:00,39.1,37.5,30.07,NNW,332,0.0,-999.0,94,0.00,,,0.01,0,Wunderground v.1.15,2013-01-16 07:59:00,
2013-01-16 03:05:00,39.1,37.5,30.07,North,355,0.0,-999.0,94,0.00,,,0.01,0,Wunderground v.1.15,2013-01-16 08:05:00,
2013-01-16 03:11:00,39.0,37.4,30.07,North,9,0.0,-999.0,94,0.00,,,0.01,0,Wunderground v.1.15,2013-01-16 08:11:00,
2013-01-16 03:16:00,38.9,37.3,30.07,ENE,74,1.0,-999.0,94,0.00,,,0.01,0,Wunderground v.1.15,2013-01-16 08:16:00,
2013-01-16 03:22:00,38.8,37.2,30.07,NNE,31,1.0,-999.0,94,0.00,,,0.01,0,Wunderground v.1.15,2013-01-16 08:22:00,
2013-01-16 03:27:00,38.8,37.2,30.06,NNE,32,1.0,-999.0,94,0.00,,,0.01,0,Wunderground v.1.15,2013-01-16 08:27:00,
2013-01-16 03:32:00,38.7,37.1,30.06,North,349,0.0,-999.0,94,0.00,,,0.01,0,Wunderground v.1.15,2013-01-16 08:32:00,
2013-01-16 03:38:00,38.7,37.1,30.06,ENE,69,0.0,-999.0,94,0.00,,,0.01,0,Wunderground v.1.15,2013-01-16 08:38:00,
2013-01-16 03:43:00,38.7,37.1,30.06,NNE,26,1.0,-999.0,94,0.00,,,0.02,0,Wunderground v.1.15,2013-01-16 08:43:00,
2013-01-16 03:49:00,38.6,37.0,30.06,NNE,23,1.0,-999.0,94,0.00,,,0.02,0,Wunderground v.1.15,2013-01-16 08:49:00,
2013-01-16 03:54:00,38.6,37.0,30.06,NW,314,0.0,-999.0,94,0.06,,,0.03,0,Wunderground v.1.15,2013-01-16 08:54:00,
2013-01-16 03:59:00,38.6,37.0,30.06,NNE,30,0.0,-999.0,94,0.06,,,0.03,0,Wunderground v.1.15,2013-01-16 08:59:00,
2013-01-16 04:05:00,38.5,36.9,30.06,SSE,150,0.0,-999.0,94,0.05,,,0.04,0,Wunderground v.1.15,2013-01-16 09:05:00,
2013-01-16 04:10:00,38.4,36.8,30.05,NNE,24,0.0,-999.0,94,0.16,,,0.05,0,Wunderground v.1.15,2013-01-16 09:10:00,
2013-01-16 04:15:00,38.3,36.7,30.05,NNE,12,1.0,-999.0,94,0.07,,,0.05,0,Wunderground v.1.15,2013-01-16 09:15:00,
2013-01-16 04:20:00,38.2,36.6,30.05,NNE,12,0.0,-999.0,94,0.04,,,0.06,0,Wunderground v.1.15,2013-01-16 09:20:00,
2013-01-16 04:26:00,38.2,36.6,30.04,ENE,64,0.0,-999.0,94,0.11,,,0.07,0,Wunderground v.1.15,2013-01-16 09:26:00,
2013-01-16 04:31:00,38.1,36.5,30.04,ENE,57,0.0,-999.0,94,0.09,,,0.07,0,Wunderground v.1.15,2013-01-16 09:31:00,
2013-01-16 04:37:00,38.1,36.5,30.04,ENE,72,0.0,-999.0,94,0.05,,,0.07,0,Wunderground v.1.15,2013-01-16 09:37:00,
2013-01-16 04:42:00,38.1,36.5,30.03,ENE,72,0.0,-999.0,94,0.04,,,0.07,0,Wunderground v.1.15,2013-01-16 09:42:00,
2013-01-16 04:47:00,38.1,36.5,30.03,NNE,32,0.0,-999.0,94,0.00,,,0.07,0,Wunderground v.1.15,2013-01-16 09:47:00,
2013-01-16 04:52:00,38.2,36.6,30.02,NNE,32,0.0,-999.0,94,0.00,,,0.07,0,Wunderground v.1.15,2013-01-16 09:52:00,
2013-01-16 04:58:00,38.2,36.6,30.02,ENE,62,0.0,-999.0,94,0.00,,,0.07,0,Wunderground v.1.15,2013-01-16 09:58:00,
2013-01-16 05:03:00,38.2,36.6,30.02,ENE,62,0.0,-999.0,94,0.00,,,0.07,0,Wunderground v.1.15,2013-01-16 10:03:00,
2013-01-16 05:08:00,38.3,36.7,30.02,ENE,62,0.0,-999.0,94,0.00,,,0.07,0,Wunderground v.1.15,2013-01-16 10:08:00,
2013-01-16 05:14:00,38.3,36.7,30.01,ENE,62,0.0,-999.0,94,0.00,,,0.07,0,Wunderground v.1.15,2013-01-16 10:14:00,
2013-01-16 05:19:00,38.3,36.7,30.02,East,83,0.0,-999.0,94,0.00,,,0.07,0,Wunderground v.1.15,2013-01-16 10:19:00,
2013-01-16 05:24:00,38.3,36.7,30.02,ENE,70,0.0,-999.0,94,0.00,,,0.07,0,Wunderground v.1.15,2013-01-16 10:24:00,
2013-01-16 05:30:00,38.4,36.8,30.02,ENE,70,0.0,-999.0,94,0.00,,,0.07,0,Wunderground v.1.15,2013-01-16 10:30:00,
2013-01-16 05:35:00,38.4,36.8,30.02,ESE,117,0.0,-999.0,94,0.00,,,0.07,0,Wunderground v.1.15,2013-01-16 10:35:00,
2013-01-16 05:40:00,38.4,36.8,30.02,ESE,117,0.0,-999.0,94,0.00,,,0.07,0,Wunderground v.1.15,2013-01-16 10:40:00,
2013-01-16 05:46:00,38.5,36.9,30.02,ESE,117,0.0,-999.0,94,0.00,,,0.08,0,Wunderground v.1.15,2013-01-16 10:46:00,
2013-01-16 05:51:00,38.5,36.9,30.02,East,89,0.0,-999.0,94,0.00,,,0.08,0,Wunderground v.1.15,2013-01-16 10:51:00,
2013-01-16 05:56:00,38.5,36.9,30.02,East,89,0.0,-999.0,94,0.00,,,0.08,0,Wunderground v.1.15,2013-01-16 10:56:00,
2013-01-16 06:02:00,38.5,36.9,30.01,East,89,0.0,-999.0,94,0.00,,,0.08,0,Wunderground v.1.15,2013-01-16 11:02:00,
2013-01-16 06:07:00,38.5,36.9,30.01,East,89,0.0,-999.0,94,0.00,,,0.08,0,Wunderground v.1.15,2013-01-16 11:07:00,
2013-01-16 06:12:00,38.6,37.0,30.01,East,89,0.0,-999.0,94,0.00,,,0.08,0,Wunderground v.1.15,2013-01-16 11:12:00,
2013-01-16 06:18:00,38.6,37.0,30.01,SE,139,0.0,-999.0,94,0.00,,,0.08,0,Wunderground v.1.15,2013-01-16 11:18:00,
2013-01-16 06:23:00,38.7,37.1,30.01,NE,53,0.0,-999.0,94,0.00,,,0.09,0,Wunderground v.1.15,2013-01-16 11:23:00,
2013-01-16 06:28:00,38.7,37.1,30.01,SE,134,0.0,-999.0,94,0.00,,,0.09,0,Wunderground v.1.15,2013-01-16 11:28:00,
2013-01-16 06:34:00,38.7,37.1,30.02,SE,134,0.0,-999.0,94,0.16,,,0.11,0,Wunderground v.1.15,2013-01-16 11:34:00,
2013-01-16 06:39:00,38.7,37.1,30.02,ENE,65,0.0,-999.0,94,0.09,,,0.11,0,Wunderground v.1.15,2013-01-16 11:39:00,
2013-01-16 06:44:00,38.8,37.2,30.02,ENE,65,0.0,-999.0,94,0.05,,,0.11,0,Wunderground v.1.15,2013-01-16 11:44:00,
2013-01-16 06:50:00,38.8,37.2,30.01,ENE,65,0.0,-999.0,94,0.04,,,0.12,0,Wunderground v.1.15,2013-01-16 11:50:00,
2013-01-16 06:55:00,38.8,37.2,30.02,SW,236,0.0,-999.0,94,0.04,,,0.12,0,Wunderground v.1.15,2013-01-16 11:55:00,
2013-01-16 07:00:00,38.9,37.3,30.02,SW,236,0.0,-999.0,94,0.04,,,0.12,0,Wunderground v.1.15,2013-01-16 12:00:00,
2013-01-16 07:06:00,38.9,37.3,30.03,SW,236,0.0,-999.0,94,0.00,,,0.12,0,Wunderground v.1.15,2013-01-16 12:06:00,
2013-01-16 07:11:00,38.9,37.3,30.03,SW,236,0.0,-999.0,94,0.00,,,0.12,0,Wunderground v.1.15,2013-01-16 12:11:00,
2013-01-16 07:16:00,39.0,37.4,30.03,SW,236,0.0,-999.0,94,0.00,,,0.12,0,Wunderground v.1.15,2013-01-16 12:16:00,
2013-01-16 07:21:00,39.0,37.4,30.03,SW,236,0.0,-999.0,94,0.00,,,0.12,0,Wunderground v.1.15,2013-01-16 12:21:00,
2013-01-16 07:27:00,39.0,37.4,30.03,SW,236,0.0,-999.0,94,0.00,,,0.12,0,Wunderground v.1.15,2013-01-16 12:27:00,
2013-01-16 07:32:00,39.1,37.5,30.03,SW,236,0.0,-999.0,94,0.00,,,0.12,0,Wunderground v.1.15,2013-01-16 12:32:00,
2013-01-16 07:38:00,39.1,37.5,30.03,SW,236,0.0,-999.0,94,0.00,,,0.12,0,Wunderground v.1.15,2013-01-16 12:38:00,
2013-01-16 07:44:00,39.1,37.5,30.03,SW,236,0.0,-999.0,94,0.00,,,0.12,5,Wunderground v.1.15,2013-01-16 12:44:00,
2013-01-16 07:49:00,39.2,37.6,30.03,SW,236,0.0,-999.0,94,0.00,,,0.12,23,Wunderground v.1.15,2013-01-16 12:49:00,
2013-01-16 07:55:00,39.2,37.6,30.02,SW,236,0.0,-999.0,94,0.00,,,0.12,26,Wunderground v.1.15,2013-01-16 12:55:00,
2013-01-16 08:00:00,39.3,37.7,30.03,SW,236,0.0,-999.0,94,0.00,,,0.13,18,Wunderground v.1.15,2013-01-16 13:00:00,
2013-01-16 08:05:00,39.3,37.7,30.03,SW,236,0.0,-999.0,94,0.00,,,0.13,7,Wunderground v.1.15,2013-01-16 13:05:00,
2013-01-16 08:10:00,39.3,37.7,30.03,SW,236,0.0,-999.0,94,0.00,,,0.13,9,Wunderground v.1.15,2013-01-16 13:10:00,
2013-01-16 08:16:00,39.3,37.7,30.03,SW,236,0.0,-999.0,94,0.00,,,0.13,11,Wunderground v.1.15,2013-01-16 13:16:00,
2013-01-16 08:21:00,39.4,37.8,30.03,SW,236,0.0,-999.0,94,0.00,,,0.13,14,Wunderground v.1.15,2013-01-16 13:21:00,
2013-01-16 08:27:00,39.4,37.8,30.03,SW,236,0.0,-999.0,94,0.00,,,0.13,14,Wunderground v.1.15,2013-01-16 13:27:00,
2013-01-16 08:33:00,39.4,38.1,30.03,SW,236,0.0,-999.0,95,0.00,,,0.13,12,Wunderground v.1.15,2013-01-16 13:33:00,
2013-01-16 08:38:00,39.5,38.2,30.04,SW,236,0.0,-999.0,95,0.00,,,0.13,18,Wunderground v.1.15,2013-01-16 13:38:00,
2013-01-16 08:43:00,39.6,38.3,30.04,SW,236,0.0,-999.0,95,0.00,,,0.13,14,Wunderground v.1.15,2013-01-16 13:43:00,
2013-01-16 08:48:00,39.6,38.3,30.04,SW,236,0.0,-999.0,95,0.00,,,0.13,19,Wunderground v.1.15,2013-01-16 13:48:00,
2013-01-16 08:54:00,39.6,38.3,30.04,SW,236,0.0,-999.0,95,0.00,,,0.13,21,Wunderground v.1.15,2013-01-16 13:54:00,
2013-01-16 08:59:00,39.6,38.3,30.04,SW,236,0.0,-999.0,95,0.00,,,0.13,21,Wunderground v.1.15,2013-01-16 13:59:00,
2013-01-16 09:04:00,39.6,38.3,30.04,SW,236,0.0,-999.0,95,0.00,,,0.13,16,Wunderground v.1.15,2013-01-16 14:04:00,
2013-01-16 09:10:00,39.7,38.4,30.05,SW,236,0.0,-999.0,95,0.00,,,0.13,16,Wunderground v.1.15,2013-01-16 14:10:00,
2013-01-16 09:15:00,39.7,38.1,30.05,SW,236,0.0,-999.0,94,0.00,,,0.13,19,Wunderground v.1.15,2013-01-16 14:15:00,
2013-01-16 09:20:00,39.8,38.2,30.06,SW,236,0.0,-999.0,94,0.00,,,0.13,19,Wunderground v.1.15,2013-01-16 14:20:00,
2013-01-16 09:25:00,39.7,38.1,30.07,SW,236,0.0,-999.0,94,0.26,,,0.15,12,Wunderground v.1.15,2013-01-16 14:25:00,
2013-01-16 09:31:00,39.7,38.1,30.06,SW,236,0.0,-999.0,94,0.20,,,0.17,30,Wunderground v.1.15,2013-01-16 14:31:00,
2013-01-16 09:36:00,39.8,38.2,30.06,SW,236,0.0,-999.0,94,0.15,,,0.19,26,Wunderground v.1.15,2013-01-16 14:36:00,
2013-01-16 09:41:00,39.8,38.2,30.05,WNW,284,0.0,-999.0,94,0.18,,,0.21,25,Wunderground v.1.15,2013-01-16 14:41:00,
2013-01-16 09:46:00,39.9,38.3,30.06,West,265,1.0,-999.0,94,0.10,,,0.21,28,Wunderground v.1.15,2013-01-16 14:46:00,
2013-01-16 09:52:00,40.0,38.4,30.07,West,265,1.0,-999.0,94,0.07,,,0.22,33,Wunderground v.1.15,2013-01-16 14:52:00,
2013-01-16 09:57:00,40.1,38.8,30.07,West,265,0.0,-999.0,95,0.07,,,0.22,32,Wunderground v.1.15,2013-01-16 14:57:00,
2013-01-16 10:02:00,40.1,38.8,30.08,NW,311,0.0,-999.0,95,0.05,,,0.23,28,Wunderground v.1.15,2013-01-16 15:02:00,
2013-01-16 10:08:00,40.1,38.8,30.08,NNW,339,1.0,-999.0,95,0.10,,,0.24,51,Wunderground v.1.15,2013-01-16 15:08:00,
2013-01-16 10:13:00,40.1,38.8,30.08,North,5,2.0,-999.0,95,0.16,,,0.25,44,Wunderground v.1.15,2013-01-16 15:13:00,
2013-01-16 10:18:00,40.0,38.4,30.07,NNW,338,2.0,-999.0,94,0.07,,,0.26,67,Wunderground v.1.15,2013-01-16 15:18:00,
2013-01-16 10:24:00,40.0,38.4,30.08,North,350,1.0,-999.0,94,0.16,,,0.27,84,Wunderground v.1.15,2013-01-16 15:24:00,
2013-01-16 10:29:00,40.1,38.8,30.08,West,277,1.0,-999.0,95,0.08,,,0.28,67,Wunderground v.1.15,2013-01-16 15:29:00,
2013-01-16 10:34:00,40.2,38.9,30.08,NNW,333,0.0,-999.0,95,0.08,,,0.28,58,Wunderground v.1.15,2013-01-16 15:34:00,
2013-01-16 10:39:00,40.2,38.9,30.08,WSW,258,1.0,-999.0,95,0.05,,,0.28,40,Wunderground v.1.15,2013-01-16 15:39:00,
2013-01-16 10:45:00,40.1,38.8,30.08,NNW,329,0.0,-999.0,95,0.04,,,0.28,62,Wunderground v.1.15,2013-01-16 15:45:00,
2013-01-16 10:50:00,40.1,38.8,30.08,NE,47,0.0,-999.0,95,0.00,,,0.29,54,Wunderground v.1.15,2013-01-16 15:50:00,
2013-01-16 10:55:00,40.0,38.4,30.07,East,80,0.0,-999.0,94,0.00,,,0.29,28,Wunderground v.1.15,2013-01-16 15:55:00,
2013-01-16 11:01:00,40.1,38.8,30.06,East,80,0.0,-999.0,95,0.04,,,0.30,33,Wunderground v.1.15,2013-01-16 16:01:00,
2013-01-16 11:06:00,40.1,38.8,30.04,East,99,0.0,-999.0,95,0.21,,,0.32,35,Wunderground v.1.15,2013-01-16 16:06:00,
2013-01-16 11:11:00,40.1,38.8,30.04,East,101,0.0,-999.0,95,0.14,,,0.33,33,Wunderground v.1.15,2013-01-16 16:11:00,
2013-01-16 11:17:00,40.2,38.9,30.04,East,101,0.0,-999.0,95,0.17,,,0.35,32,Wunderground v.1.15,2013-01-16 16:17:00,
2013-01-16 11:22:00,40.3,39.0,30.04,East,101,0.0,-999.0,95,0.20,,,0.37,40,Wunderground v.1.15,2013-01-16 16:22:00,
2013-01-16 11:27:00,40.4,38.8,30.04,East,101,0.0,-999.0,94,0.13,,,0.38,39,Wunderground v.1.15,2013-01-16 16:27:00,
2013-01-16 11:32:00,40.5,38.9,30.04,East,101,0.0,-999.0,94,0.13,,,0.39,33,Wunderground v.1.15,2013-01-16 16:32:00,
2013-01-16 11:38:00,40.5,38.9,30.04,East,101,0.0,-999.0,94,0.19,,,0.41,46,Wunderground v.1.15,2013-01-16 16:38:00,
2013-01-16 11:43:00,40.6,39.0,30.03,East,101,0.0,-999.0,94,0.11,,,0.41,30,Wunderground v.1.15,2013-01-16 16:43:00,
2013-01-16 11:48:00,40.6,39.3,30.02,East,101,0.0,-999.0,95,0.06,,,0.42,47,Wunderground v.1.15,2013-01-16 16:48:00,
2013-01-16 11:54:00,40.8,39.5,30.03,NNW,339,0.0,-999.0,95,0.06,,,0.42,49,Wunderground v.1.15,2013-01-16 16:54:00,
2013-01-16 11:59:00,41.0,39.7,30.03,NE,43,1.0,-999.0,95,0.05,,,0.42,102,Wunderground v.1.15,2013-01-16 16:59:00,
2013-01-16 12:04:00,41.1,39.8,30.03,NE,43,1.0,-999.0,95,0.05,,,0.43,111,Wunderground v.1.15,2013-01-16 17:04:00,
2013-01-16 12:09:00,41.3,40.0,30.02,NE,55,0.0,-999.0,95,0.05,,,0.43,116,Wunderground v.1.15,2013-01-16 17:09:00,
2013-01-16 12:15:00,41.3,40.0,30.02,NE,50,0.0,-999.0,95,0.05,,,0.44,104,Wunderground v.1.15,2013-01-16 17:15:00,
2013-01-16 12:20:00,41.3,40.0,30.01,East,98,0.0,-999.0,95,0.05,,,0.44,116,Wunderground v.1.15,2013-01-16 17:20:00,
2013-01-16 12:25:00,41.3,40.0,30.01,East,98,0.0,-999.0,95,0.05,,,0.44,188,Wunderground v.1.15,2013-01-16 17:25:00,
2013-01-16 12:31:00,41.6,40.3,30.01,South,186,0.0,-999.0,95,0.00,,,0.44,148,Wunderground v.1.15,2013-01-16 17:31:00,
2013-01-16 12:36:00,42.0,40.7,30.00,South,180,0.0,-999.0,95,0.00,,,0.44,162,Wunderground v.1.15,2013-01-16 17:36:00,
2013-01-16 12:41:00,42.2,40.9,29.99,South,180,0.0,-999.0,95,0.00,,,0.44,192,Wunderground v.1.15,2013-01-16 17:41:00,
2013-01-16 12:47:00,42.6,41.3,29.99,South,180,0.0,-999.0,95,0.00,,,0.44,141,Wunderground v.1.15,2013-01-16 17:47:00,
2013-01-16 12:52:00,42.8,41.5,29.99,South,180,0.0,-999.0,95,0.00,,,0.44,146,Wunderground v.1.15,2013-01-16 17:52:00,
2013-01-16 12:57:00,42.9,41.6,29.98,South,180,0.0,-999.0,95,0.00,,,0.44,176,Wunderground v.1.15,2013-01-16 17:57:00,
2013-01-16 13:02:00,43.1,41.8,29.98,South,179,0.0,-999.0,95,0.00,,,0.44,211,Wunderground v.1.15,2013-01-16 18:02:00,
2013-01-16 13:08:00,43.5,42.2,29.98,South,180,0.0,-999.0,95,0.00,,,0.44,181,Wunderground v.1.15,2013-01-16 18:08:00,
2013-01-16 13:13:00,43.8,42.5,29.98,South,182,0.0,-999.0,95,0.00,,,0.44,213,Wunderground v.1.15,2013-01-16 18:13:00,
2013-01-16 13:18:00,43.9,42.6,29.99,SSW,196,0.0,-999.0,95,0.00,,,0.44,121,Wunderground v.1.15,2013-01-16 18:18:00,
2013-01-16 13:23:00,44.0,42.7,29.98,SSW,213,0.0,-999.0,95,0.00,,,0.44,151,Wunderground v.1.15,2013-01-16 18:23:00,
2013-01-16 13:29:00,44.0,42.7,29.98,SSW,213,0.0,-999.0,95,0.00,,,0.44,100,Wunderground v.1.15,2013-01-16 18:29:00,
2013-01-16 13:34:00,44.1,42.8,29.98,WSW,239,0.0,-999.0,95,0.00,,,0.44,81,Wunderground v.1.15,2013-01-16 18:34:00,
2013-01-16 13:39:00,44.1,42.8,29.98,WSW,239,0.0,-999.0,95,0.00,,,0.44,132,Wunderground v.1.15,2013-01-16 18:39:00,
2013-01-16 13:45:00,44.1,42.8,29.98,WSW,239,0.0,-999.0,95,0.00,,,0.44,116,Wunderground v.1.15,2013-01-16 18:45:00,
2013-01-16 13:50:00,44.3,43.0,29.96,WSW,238,0.0,-999.0,95,0.00,,,0.44,148,Wunderground v.1.15,2013-01-16 18:50:00,
2013-01-16 13:55:00,44.7,43.4,29.96,WSW,238,0.0,-999.0,95,0.00,,,0.44,95,Wunderground v.1.15,2013-01-16 18:55:00,
2013-01-16 14:00:00,44.7,43.4,29.95,WSW,238,0.0,-999.0,95,0.00,,,0.44,146,Wunderground v.1.15,2013-01-16 19:00:00,
2013-01-16 14:06:00,45.0,43.7,29.95,WSW,238,0.0,-999.0,95,0.00,,,0.44,123,Wunderground v.1.15,2013-01-16 19:06:00,
2013-01-16 14:11:00,45.1,43.8,29.95,WSW,238,0.0,-999.0,95,0.00,,,0.44,118,Wunderground v.1.15,2013-01-16 19:11:00,
2013-01-16 14:16:00,45.5,44.2,29.96,WSW,238,0.0,-999.0,95,0.00,,,0.44,120,Wunderground v.1.15,2013-01-16 19:16:00,
2013-01-16 14:21:00,45.7,44.4,29.96,WSW,238,0.0,-999.0,95,0.00,,,0.44,125,Wunderground v.1.15,2013-01-16 19:21:00,
2013-01-16 14:27:00,45.9,44.5,29.96,WSW,238,0.0,-999.0,95,0.00,,,0.44,137,Wunderground v.1.15,2013-01-16 19:27:00,
2013-01-16 14:32:00,46.0,44.6,29.96,WSW,238,0.0,-999.0,95,0.00,,,0.44,141,Wunderground v.1.15,2013-01-16 19:32:00,
2013-01-16 14:37:00,46.1,44.7,29.97,WSW,238,0.0,-999.0,95,0.00,,,0.44,118,Wunderground v.1.15,2013-01-16 19:37:00,
2013-01-16 14:42:00,46.2,44.8,29.97,WSW,238,0.0,-999.0,95,0.00,,,0.44,72,Wunderground v.1.15,2013-01-16 19:42:00,
2013-01-16 14:48:00,46.3,44.9,29.97,WSW,238,0.0,-999.0,95,0.00,,,0.44,65,Wunderground v.1.15,2013-01-16 19:48:00,
2013-01-16 14:53:00,46.4,45.0,29.97,WSW,238,0.0,-999.0,95,0.00,,,0.44,63,Wunderground v.1.15,2013-01-16 19:53:00,
2013-01-16 14:58:00,46.6,45.2,29.97,South,176,0.0,-999.0,95,0.00,,,0.44,84,Wunderground v.1.15,2013-01-16 19:58:00,
2013-01-16 15:04:00,46.7,45.3,29.98,SW,224,0.0,-999.0,95,0.00,,,0.44,56,Wunderground v.1.15,2013-01-16 20:04:00,
2013-01-16 15:09:00,46.9,45.5,29.98,SW,224,0.0,-999.0,95,0.00,,,0.44,63,Wunderground v.1.15,2013-01-16 20:09:00,
2013-01-16 15:14:00,47.0,45.6,29.98,SW,224,0.0,-999.0,95,0.00,,,0.44,65,Wunderground v.1.15,2013-01-16 20:14:00,
2013-01-16 15:20:00,47.0,45.6,29.98,WSW,246,0.0,-999.0,95,0.00,,,0.44,60,Wunderground v.1.15,2013-01-16 20:20:00,
2013-01-16 15:25:00,47.2,45.8,29.97,WSW,246,0.0,-999.0,95,0.00,,,0.44,54,Wunderground v.1.15,2013-01-16 20:25:00,
2013-01-16 15:30:00,47.3,45.9,29.98,WSW,246,0.0,-999.0,95,0.00,,,0.44,47,Wunderground v.1.15,2013-01-16 20:30:00,
2013-01-16 15:35:00,47.4,46.0,29.98,WSW,246,0.0,-999.0,95,0.00,,,0.44,49,Wunderground v.1.15,2013-01-16 20:35:00,
2013-01-16 15:41:00,47.5,46.1,29.98,WSW,246,0.0,-999.0,95,0.00,,,0.44,56,Wunderground v.1.15,2013-01-16 20:41:00,
2013-01-16 15:46:00,47.5,46.1,29.97,WSW,246,0.0,-999.0,95,0.00,,,0.44,56,Wunderground v.1.15,2013-01-16 20:46:00,
2013-01-16 15:51:00,47.6,46.2,29.98,WSW,246,0.0,-999.0,95,0.00,,,0.44,56,Wunderground v.1.15,2013-01-16 20:51:00,
2013-01-16 15:57:00,47.7,46.3,29.98,WSW,246,0.0,-999.0,95,0.00,,,0.44,49,Wunderground v.1.15,2013-01-16 20:57:00,
2013-01-16 16:02:00,47.7,46.3,29.99,WSW,246,0.0,-999.0,95,0.00,,,0.44,46,Wunderground v.1.15,2013-01-16 21:02:00,
2013-01-16 16:07:00,47.9,46.5,29.98,WSW,246,0.0,-999.0,95,0.00,,,0.44,49,Wunderground v.1.15,2013-01-16 21:07:00,
2013-01-16 16:13:00,48.0,46.6,29.98,WSW,246,0.0,-999.0,95,0.00,,,0.44,56,Wunderground v.1.15,2013-01-16 21:13:00,
2013-01-16 16:18:00,48.1,46.7,29.99,WSW,246,0.0,-999.0,95,0.00,,,0.44,53,Wunderground v.1.15,2013-01-16 21:18:00,
2013-01-16 16:23:00,48.1,46.7,29.99,WSW,246,0.0,-999.0,95,0.00,,,0.44,51,Wunderground v.1.15,2013-01-16 21:23:00,
2013-01-16 16:29:00,48.2,46.8,30.00,West,259,1.0,-999.0,95,0.00,,,0.44,42,Wunderground v.1.15,2013-01-16 21:29:00,
2013-01-16 16:34:00,48.2,46.8,29.99,West,259,1.0,-999.0,95,0.00,,,0.44,40,Wunderground v.1.15,2013-01-16 21:34:00,
2013-01-16 16:40:00,48.4,47.0,29.99,West,259,0.0,-999.0,95,0.00,,,0.44,33,Wunderground v.1.15,2013-01-16 21:40:00,
2013-01-16 16:45:00,48.4,47.0,29.99,West,259,0.0,-999.0,95,0.00,,,0.44,44,Wunderground v.1.15,2013-01-16 21:45:00,
2013-01-16 16:50:00,48.5,47.1,29.99,West,259,0.0,-999.0,95,0.00,,,0.44,28,Wunderground v.1.15,2013-01-16 21:50:00,
2013-01-16 16:56:00,48.5,47.1,29.99,West,259,0.0,-999.0,95,0.00,,,0.44,19,Wunderground v.1.15,2013-01-16 21:56:00,
2013-01-16 17:01:00,48.6,47.2,29.99,West,259,0.0,-999.0,95,0.00,,,0.44,18,Wunderground v.1.15,2013-01-16 22:01:00,
2013-01-16 17:07:00,48.7,47.3,29.99,West,259,0.0,-999.0,95,0.00,,,0.44,11,Wunderground v.1.15,2013-01-16 22:07:00,
2013-01-16 17:12:00,48.6,47.2,29.99,West,259,0.0,-999.0,95,0.00,,,0.44,12,Wunderground v.1.15,2013-01-16 22:12:00,
2013-01-16 17:17:00,48.6,47.2,29.99,West,259,0.0,-999.0,95,0.00,,,0.44,7,Wunderground v.1.15,2013-01-16 22:17:00,
2013-01-16 17:23:00,48.7,47.3,29.99,West,259,0.0,-999.0,95,0.00,,,0.44,0,Wunderground v.1.15,2013-01-16 22:23:00,
2013-01-16 17:28:00,48.7,47.3,29.99,West,259,0.0,-999.0,95,0.00,,,0.44,0,Wunderground v.1.15,2013-01-16 22:28:00,
2013-01-16 17:34:00,48.7,47.3,30.00,West,259,0.0,-999.0,95,0.00,,,0.44,0,Wunderground v.1.15,2013-01-16 22:34:00,
2013-01-16 17:40:00,48.7,47.3,29.99,West,259,0.0,-999.0,95,0.00,,,0.44,0,Wunderground v.1.15,2013-01-16 22:40:00,
2013-01-16 17:45:00,48.7,47.3,29.99,West,259,0.0,-999.0,95,0.00,,,0.44,0,Wunderground v.1.15,2013-01-16 22:45:00,
2013-01-16 17:50:00,48.7,47.3,29.99,West,259,0.0,-999.0,95,0.00,,,0.44,0,Wunderground v.1.15,2013-01-16 22:50:00,
2013-01-16 17:56:00,48.7,47.3,29.99,West,259,0.0,-999.0,95,0.00,,,0.44,0,Wunderground v.1.15,2013-01-16 22:56:00,
2013-01-16 18:01:00,48.6,47.2,29.99,West,259,0.0,-999.0,95,0.00,,,0.44,0,Wunderground v.1.15,2013-01-16 23:01:00,
2013-01-16 18:06:00,48.6,47.2,29.99,NW,313,0.0,-999.0,95,0.00,,,0.44,0,Wunderground v.1.15,2013-01-16 23:06:00,
2013-01-16 18:11:00,48.6,47.2,29.99,WNW,291,1.0,-999.0,95,0.00,,,0.44,0,Wunderground v.1.15,2013-01-16 23:11:00,
2013-01-16 18:17:00,48.6,47.2,29.99,WNW,291,0.0,-999.0,95,0.00,,,0.44,0,Wunderground v.1.15,2013-01-16 23:17:00,
2013-01-16 18:22:00,48.5,47.1,29.99,WNW,284,0.0,-999.0,95,0.00,,,0.44,0,Wunderground v.1.15,2013-01-16 23:22:00,
2013-01-16 18:27:00,48.5,47.1,29.99,WNW,284,0.0,-999.0,95,0.00,,,0.44,0,Wunderground v.1.15,2013-01-16 23:27:00,
2013-01-16 18:32:00,48.4,47.0,30.00,WNW,284,0.0,-999.0,95,0.00,,,0.44,0,Wunderground v.1.15,2013-01-16 23:32:00,
2013-01-16 18:38:00,48.4,47.0,29.99,SW,216,0.0,-999.0,95,0.00,,,0.44,0,Wunderground v.1.15,2013-01-16 23:38:00,
2013-01-16 18:43:00,48.4,47.0,29.99,SW,216,0.0,-999.0,95,0.00,,,0.44,0,Wunderground v.1.15,2013-01-16 23:43:00,
2013-01-16 18:48:00,48.3,46.9,30.00,West,267,0.0,-999.0,95,0.00,,,0.44,0,Wunderground v.1.15,2013-01-16 23:48:00,
2013-01-16 18:53:00,48.3,46.9,30.00,West,267,0.0,-999.0,95,0.00,,,0.44,0,Wunderground v.1.15,2013-01-16 23:53:00,
2013-01-16 18:59:00,48.3,46.9,30.00,West,267,0.0,-999.0,95,0.00,,,0.44,0,Wunderground v.1.15,2013-01-16 23:59:00,
2013-01-16 19:04:00,48.3,46.9,30.00,West,267,0.0,-999.0,95,0.00,,,0.44,0,Wunderground v.1.15,2013-01-17 00:04:00,
2013-01-16 19:09:00,48.3,46.9,30.00,West,267,0.0,-999.0,95,0.00,,,0.44,0,Wunderground v.1.15,2013-01-17 00:09:00,
2013-01-16 19:14:00,48.3,46.9,30.00,West,267,0.0,-999.0,95,0.00,,,0.44,0,Wunderground v.1.15,2013-01-17 00:14:00,
2013-01-16 19:19:00,48.3,46.9,29.99,West,267,0.0,-999.0,95,0.00,,,0.44,0,Wunderground v.1.15,2013-01-17 00:19:00,
2013-01-16 19:25:00,48.3,46.9,29.99,West,267,0.0,-999.0,95,0.00,,,0.44,0,Wunderground v.1.15,2013-01-17 00:25:00,
2013-01-16 19:30:00,48.3,46.9,29.99,West,267,0.0,-999.0,95,0.00,,,0.44,0,Wunderground v.1.15,2013-01-17 00:30:00,
2013-01-16 19:35:00,48.3,46.9,29.99,West,267,0.0,-999.0,95,0.00,,,0.44,0,Wunderground v.1.15,2013-01-17 00:35:00,
2013-01-16 19:41:00,48.2,46.8,29.99,West,267,0.0,-999.0,95,0.00,,,0.44,0,Wunderground v.1.15,2013-01-17 00:41:00,
2013-01-16 19:46:00,48.2,46.8,29.98,West,267,0.0,-999.0,95,0.00,,,0.44,0,Wunderground v.1.15,2013-01-17 00:46:00,
2013-01-16 19:51:00,48.2,46.8,29.99,West,267,0.0,-999.0,95,0.00,,,0.44,0,Wunderground v.1.15,2013-01-17 00:51:00,
2013-01-16 19:57:00,48.2,46.8,29.99,West,267,0.0,-999.0,95,0.00,,,0.44,0,Wunderground v.1.15,2013-01-17 00:57:00,
2013-01-16 20:02:00,48.2,46.8,29.99,West,267,0.0,-999.0,95,0.00,,,0.44,0,Wunderground v.1.15,2013-01-17 01:02:00,
2013-01-16 20:07:00,48.2,46.8,29.99,West,267,0.0,-999.0,95,0.00,,,0.44,0,Wunderground v.1.15,2013-01-17 01:07:00,
2013-01-16 20:12:00,48.1,46.7,29.99,West,267,0.0,-999.0,95,0.00,,,0.44,0,Wunderground v.1.15,2013-01-17 01:12:00,
2013-01-16 20:18:00,48.1,46.7,29.99,West,267,0.0,-999.0,95,0.00,,,0.44,0,Wunderground v.1.15,2013-01-17 01:18:00,
2013-01-16 20:23:00,48.1,46.7,29.99,West,267,0.0,-999.0,95,0.00,,,0.44,0,Wunderground v.1.15,2013-01-17 01:23:00,
2013-01-16 20:28:00,48.1,46.7,29.99,West,267,0.0,-999.0,95,0.00,,,0.44,0,Wunderground v.1.15,2013-01-17 01:28:00,
2013-01-16 20:34:00,48.1,46.7,29.99,West,267,0.0,-999.0,95,0.00,,,0.44,0,Wunderground v.1.15,2013-01-17 01:34:00,
2013-01-16 20:39:00,48.1,46.7,29.99,West,267,0.0,-999.0,95,0.00,,,0.44,0,Wunderground v.1.15,2013-01-17 01:39:00,
2013-01-16 20:44:00,48.1,46.7,30.00,West,267,0.0,-999.0,95,0.00,,,0.44,0,Wunderground v.1.15,2013-01-17 01:44:00,
2013-01-16 20:50:00,48.1,46.7,29.99,West,267,0.0,-999.0,95,0.00,,,0.44,0,Wunderground v.1.15,2013-01-17 01:50:00,
2013-01-16 20:55:00,48.1,46.7,30.00,West,267,0.0,-999.0,95,0.00,,,0.44,0,Wunderground v.1.15,2013-01-17 01:55:00,
2013-01-16 21:01:00,48.1,46.7,30.00,West,267,0.0,-999.0,95,0.00,,,0.44,0,Wunderground v.1.15,2013-01-17 02:01:00,
2013-01-16 21:06:00,48.1,46.7,29.99,West,267,0.0,-999.0,95,0.00,,,0.44,0,Wunderground v.1.15,2013-01-17 02:06:00,
2013-01-16 21:11:00,48.1,46.7,30.00,West,267,0.0,-999.0,95,0.00,,,0.44,0,Wunderground v.1.15,2013-01-17 02:11:00,
2013-01-16 21:17:00,48.1,46.7,30.00,West,267,0.0,-999.0,95,0.00,,,0.44,0,Wunderground v.1.15,2013-01-17 02:17:00,
2013-01-16 21:22:00,48.1,46.7,30.00,West,267,0.0,-999.0,95,0.00,,,0.44,0,Wunderground v.1.15,2013-01-17 02:22:00,
2013-01-16 21:27:00,48.1,46.7,29.99,West,267,0.0,-999.0,95,0.00,,,0.44,0,Wunderground v.1.15,2013-01-17 02:27:00,
2013-01-16 21:33:00,48.1,46.7,29.98,West,267,0.0,-999.0,95,0.00,,,0.44,0,Wunderground v.1.15,2013-01-17 02:33:00,
2013-01-16 21:38:00,48.1,46.7,29.98,West,267,0.0,-999.0,95,0.00,,,0.44,0,Wunderground v.1.15,2013-01-17 02:38:00,
2013-01-16 21:43:00,48.1,46.7,29.98,West,267,0.0,-999.0,95,0.00,,,0.44,0,Wunderground v.1.15,2013-01-17 02:43:00,
2013-01-16 21:49:00,48.0,46.6,29.98,West,267,0.0,-999.0,95,0.00,,,0.44,0,Wunderground v.1.15,2013-01-17 02:49:00,
2013-01-16 21:54:00,48.1,46.7,29.98,West,267,0.0,-999.0,95,0.00,,,0.44,0,Wunderground v.1.15,2013-01-17 02:54:00,
2013-01-16 21:59:00,48.1,46.7,29.97,West,267,0.0,-999.0,95,0.00,,,0.44,0,Wunderground v.1.15,2013-01-17 02:59:00,
2013-01-16 22:05:00,48.1,46.7,29.97,West,267,0.0,-999.0,95,0.00,,,0.44,0,Wunderground v.1.15,2013-01-17 03:05:00,
2013-01-16 22:10:00,48.1,46.7,29.96,West,267,0.0,-999.0,95,0.00,,,0.44,0,Wunderground v.1.15,2013-01-17 03:10:00,
2013-01-16 22:15:00,48.1,46.7,29.95,West,267,0.0,-999.0,95,0.00,,,0.44,0,Wunderground v.1.15,2013-01-17 03:15:00,
2013-01-16 22:21:00,48.1,46.7,29.96,West,267,0.0,-999.0,95,0.00,,,0.44,0,Wunderground v.1.15,2013-01-17 03:21:00,
2013-01-16 22:26:00,48.1,46.7,29.96,West,267,0.0,-999.0,95,0.00,,,0.44,0,Wunderground v.1.15,2013-01-17 03:26:00,
2013-01-16 22:31:00,48.1,46.7,29.96,West,267,0.0,-999.0,95,0.00,,,0.45,0,Wunderground v.1.15,2013-01-17 03:31:00,
2013-01-16 22:37:00,48.1,46.7,29.96,West,267,0.0,-999.0,95,0.00,,,0.45,0,Wunderground v.1.15,2013-01-17 03:37:00,
2013-01-16 22:42:00,48.2,46.8,29.96,West,267,0.0,-999.0,95,0.00,,,0.45,0,Wunderground v.1.15,2013-01-17 03:42:00,
2013-01-16 22:47:00,48.2,46.8,29.96,West,267,0.0,-999.0,95,0.00,,,0.45,0,Wunderground v.1.15,2013-01-17 03:47:00,
2013-01-16 22:52:00,48.2,46.8,29.96,West,267,0.0,-999.0,95,0.00,,,0.45,0,Wunderground v.1.15,2013-01-17 03:52:00,
2013-01-16 22:58:00,48.3,46.9,29.97,West,267,0.0,-999.0,95,0.00,,,0.45,0,Wunderground v.1.15,2013-01-17 03:58:00,
2013-01-16 23:03:00,48.3,46.9,29.97,West,267,0.0,-999.0,95,0.00,,,0.45,0,Wunderground v.1.15,2013-01-17 04:03:00,
2013-01-16 23:08:00,48.3,46.9,29.97,West,267,0.0,-999.0,95,0.00,,,0.46,0,Wunderground v.1.15,2013-01-17 04:08:00,
2013-01-16 23:14:00,48.3,46.9,29.97,West,267,0.0,-999.0,95,0.00,,,0.46,0,Wunderground v.1.15,2013-01-17 04:14:00,
2013-01-16 23:19:00,48.3,46.9,29.97,West,267,0.0,-999.0,95,0.00,,,0.46,0,Wunderground v.1.15,2013-01-17 04:19:00,
2013-01-16 23:25:00,48.3,46.9,29.97,West,267,0.0,-999.0,95,0.00,,,0.47,0,Wunderground v.1.15,2013-01-17 04:25:00,
2013-01-16 23:30:00,48.4,47.0,29.97,West,267,0.0,-999.0,95,0.09,,,0.47,0,Wunderground v.1.15,2013-01-17 04:30:00,
2013-01-16 23:35:00,48.4,47.0,29.97,West,267,0.0,-999.0,95,0.20,,,0.49,0,Wunderground v.1.15,2013-01-17 04:35:00,
2013-01-16 23:40:00,48.4,47.0,29.97,West,267,0.0,-999.0,95,0.09,,,0.50,0,Wunderground v.1.15,2013-01-17 04:40:00,
2013-01-16 23:46:00,48.4,47.0,29.97,West,267,0.0,-999.0,95,0.09,,,0.50,0,Wunderground v.1.15,2013-01-17 04:46:00,
2013-01-16 23:51:00,48.4,47.0,29.98,West,267,0.0,-999.0,95,0.06,,,0.51,0,Wunderground v.1.15,2013-01-17 04:51:00,
2013-01-16 23:56:00,48.5,47.1,29.97,West,267,0.0,-999.0,95,0.06,,,0.51,0,Wunderground v.1.15,2013-01-17 04:56:00,